Barcelona, Spain

7:34 PM CET en Febrero 19, 2019 (GMT +0100)
El Prat

Tiempo Historia de LEBL - Febrero, 2019

Change the Weather History Date:

Martes, Febrero 12, 2019

  Actual Average Record
Temperature  
Temperatura media 50 ° F -  
Temperatura máxima 59 ° F 57 ° F 68 ° F (2007)
Temperatura mínima 41 ° F 43 ° F 33 ° F (1999)
Degree Days  
Grados día de calefacción 15    
Moisture  
Punto de rocío 40 ° F    
Average Humidity 69    
Maximum Humidity 87    
Minimum Humidity 40    
Precipitación  
Precipitación 0.00 pul 0.05 pul - ()
Presión al nivel del mar  
Presión al nivel del mar 30.45 pul    
Viento  
Velocidad del viento 9 mph ()    
Velocidad máxima del viento 17 mph    
Max Gust Speed 28 mph    
Visibilidad 10.1 Millas    
Eventos      
Averages and records for this station are not official NWS values.
T = Trace of Precipitation, MM = Missing Value Source: Averaged Metar Reports

Daily Weather History Graph

Daily Weather History Graph

Search for Another Location

Airport or City:

Astronomía

Feb. 12, 2019 Salida Puesta
Hora real 7:50 AM CET 6:21 PM CET
Crepúsculo civil 7:22 AM CET 6:50 PM CET
Crepúsculo náutico 6:49 AM CET 7:22 PM CET
Crepúsculo astronómico 6:17 AM CET 7:54 PM CET
Luna 11:44 AM CET (2/12) 12:45 AM CET (2/12)
Horas de luz 11h 27m
Horas de luz
10h 30m
Creciente, 45% of the Moon is Illuminated
Feb 12
Creciente
Feb 12
Cuarto creciente
Feb 19
Luna llena
Feb 26
Cuarto menguante
Mar 6
Nueva

Hourly Weather History & Observations

Hora (CET) Temp. Vientos helados Punto de rocío Humedad Presión Visibilidad Wind Dir Velocidad del viento Velocidad de ráfagas Precip Eventos Condiciones
12:00 AM 48 ° F - 43 ° F 76% 30.43 pul 12 mi Norte 6.9 mph - -  
12:00 AM 48.2 ° F - 41.0 ° F 76% 30.42 pul 6.2 mi NNO 5.8 mph - N/A   Parcialmente nublado
12:30 AM 46.4 ° F 43.5 ° F 41.0 ° F 81% 30.42 pul 6.2 mi NNO 5.8 mph - N/A   Parcialmente nublado
1:00 AM 47 ° F - 43 ° F 79% 30.44 pul 11 mi Norte 8.1 mph - -   Nubes dispersas
1:00 AM 46.4 ° F 42.9 ° F 41.0 ° F 81% 30.42 pul 6.2 mi NNO 6.9 mph - N/A   Parcialmente nublado
1:30 AM 46.4 ° F 42.4 ° F 41.0 ° F 81% 30.42 pul 6.2 mi NO 8.1 mph - N/A   Parcialmente nublado
2:00 AM 47 ° F - 43 ° F 80% 30.44 pul 11 mi Norte 9.2 mph - -  
2:00 AM 46.4 ° F 41.9 ° F 41.0 ° F 81% 30.42 pul 6.2 mi NNO 9.2 mph - N/A   Parcialmente nublado
2:30 AM 44.6 ° F 38.4 ° F 41.0 ° F 87% 30.42 pul 6.2 mi NO 12.7 mph - N/A   Parcialmente nublado
3:00 AM 46 ° F - 43 ° F 84% 30.44 pul 9 mi Norte 8.1 mph - -  
3:00 AM 46.4 ° F 41.5 ° F 41.0 ° F 81% 30.42 pul 6.2 mi NNO 10.4 mph - N/A   Parcialmente nublado
3:30 AM 44.6 ° F 38.8 ° F 41.0 ° F 87% 30.42 pul 6.2 mi NO 11.5 mph - N/A   Parcialmente nublado
4:00 AM 45 ° F - 41 ° F 81% 30.43 pul 9 mi Norte 10.4 mph - -   Nubes dispersas
4:00 AM 44.6 ° F 40.2 ° F 39.2 ° F 81% 30.42 pul 6.2 mi NNO 8.1 mph - N/A   Parcialmente nublado
4:30 AM 44.6 ° F 39.2 ° F 39.2 ° F 81% 30.42 pul 6.2 mi NNO 10.4 mph - N/A   Parcialmente nublado
5:00 AM 45 ° F - 39 ° F 73% 30.44 pul 14 mi Norte 11.5 mph - -  
5:00 AM 44.6 ° F 38.8 ° F 37.4 ° F 76% 30.42 pul 6.2 mi NNO 11.5 mph - N/A   Parcialmente nublado
5:30 AM 42.8 ° F 36.2 ° F 37.4 ° F 81% 30.42 pul 6.2 mi NNO 12.7 mph - N/A   Parcialmente nublado
6:00 AM 44 ° F - 37 ° F 69% 30.45 pul 13 mi Norte 11.5 mph - -  
6:30 AM 42.8 ° F 36.6 ° F 35.6 ° F 76% 30.42 pul 6.2 mi NNO 11.5 mph - N/A   Parcialmente nublado
7:00 AM 42 ° F - 36 ° F 72% 30.45 pul 16 mi Norte 10.4 mph - -   Nubes dispersas
7:00 AM 42.8 ° F 37.5 ° F 35.6 ° F 76% 30.45 pul 6.2 mi NNO 9.2 mph - N/A   Parcialmente nublado
7:30 AM 41.0 ° F 34.3 ° F 33.8 ° F 76% 30.45 pul 6.2 mi NNO 11.5 mph - N/A   Parcialmente nublado
8:00 AM 43 ° F - 36 ° F 69% 30.48 pul 17 mi Norte 11.5 mph - -  
8:00 AM 42.8 ° F 36.2 ° F 35.6 ° F 76% 30.45 pul 6.2 mi NNO 12.7 mph - N/A   Parcialmente nublado
8:30 AM 42.8 ° F 36.2 ° F 35.6 ° F 76% 30.48 pul 6.2 mi NNO 12.7 mph 24.2 mph N/A   Parcialmente nublado
9:00 AM 44 ° F - 37 ° F 68% 30.49 pul 13 mi Norte 12.7 mph - -  
9:00 AM 42.8 ° F 36.2 ° F 35.6 ° F 76% 30.48 pul 6.2 mi NNO 12.7 mph - N/A   Parcialmente nublado
9:30 AM 44.6 ° F 38.1 ° F 35.6 ° F 71% 30.48 pul 6.2 mi NNO 13.8 mph 27.6 mph N/A   Parcialmente nublado
10:00 AM 48 ° F - 38 ° F 58% 30.50 pul 17 mi Norte 8.1 mph - -   Despejado
10:00 AM 46.4 ° F 41.5 ° F 35.6 ° F 66% 30.48 pul - NO 10.4 mph - N/A   Despejado
10:30 AM 48.2 ° F - 35.6 ° F 62% 30.48 pul - NO 10.4 mph - N/A   Despejado
11:00 AM 51.8 ° F - 35.6 ° F 54% 30.48 pul - NNO 10.4 mph 21.9 mph N/A   Despejado
11:30 AM 53.6 ° F - 35.6 ° F 51% 30.48 pul - NNO 10.4 mph - N/A   Despejado
12:00 PM 53.6 ° F - 35.6 ° F 51% 30.51 pul - NNO 10.4 mph - N/A   Despejado
12:30 PM 55.4 ° F - 35.6 ° F 47% 30.48 pul - ONO 3.5 mph - N/A   Despejado
1:00 PM 58 ° F - 40 ° F 40% 30.49 pul 25 mi SSO 8.1 mph - -   Despejado
1:00 PM 57.2 ° F - 39.2 ° F 51% 30.48 pul - SO 4.6 mph - N/A   Despejado
1:30 PM 57.2 ° F - 39.2 ° F 51% 30.48 pul - SSO 10.4 mph - N/A   Despejado
2:00 PM 58 ° F - 42 ° F 43% 30.47 pul 19 mi SO 16.1 mph - -  
2:00 PM 55.4 ° F - 41.0 ° F 58% 30.45 pul - SO 13.8 mph - N/A   Despejado
3:00 PM 57 ° F - 42 ° F 45% 30.45 pul 19 mi SO 17.3 mph - -  
3:30 PM 55.4 ° F - 41.0 ° F 58% 30.45 pul - SO 16.1 mph - N/A   Despejado
4:00 PM 57.2 ° F - 39.2 ° F 51% 30.42 pul - SO 17.3 mph - N/A   Despejado
4:30 PM 57.2 ° F - 39.2 ° F 51% 30.42 pul - SO 16.1 mph - N/A   Despejado
5:00 PM 55.4 ° F - 42.8 ° F 63% 30.42 pul - SO 16.1 mph - N/A   Despejado
5:30 PM 55.4 ° F - 44.6 ° F 67% 30.42 pul - SO 15.0 mph - N/A   Despejado
6:00 PM 55 ° F - 45 ° F 59% 30.44 pul 19 mi OSO 10.4 mph - -  
6:00 PM 53.6 ° F - 44.6 ° F 72% 30.42 pul - SO 13.8 mph - N/A   Despejado
6:30 PM 53.6 ° F - 42.8 ° F 67% 30.42 pul - SO 12.7 mph - N/A   Despejado
7:00 PM 54 ° F - 45 ° F 62% 30.45 pul 25 mi OSO 10.4 mph - -   Despejado
7:00 PM 53.6 ° F - 42.8 ° F 67% 30.45 pul - SO 13.8 mph - N/A   Despejado
7:30 PM 53.6 ° F - 44.6 ° F 72% 30.45 pul - SO 13.8 mph - N/A   Despejado
8:00 PM 53 ° F - 45 ° F 66% 30.47 pul 17 mi OSO 9.2 mph - -  
8:00 PM 51.8 ° F - 44.6 ° F 76% 30.45 pul - OSO 11.5 mph - N/A   Despejado
8:30 PM 51.8 ° F - 41.0 ° F 67% 30.45 pul - OSO 10.4 mph - N/A   Despejado
9:00 PM 50 ° F - 42 ° F 66% 30.47 pul 19 mi Oeste 4.6 mph - -  
9:00 PM 50.0 ° F - 41.0 ° F 71% 30.45 pul - OSO 6.9 mph - N/A   Despejado
9:30 PM 50.0 ° F - 41.0 ° F 71% 30.45 pul - Oeste 4.6 mph - N/A   Despejado
10:00 PM 48 ° F - 40 ° F 66% 30.48 pul 11 mi Norte 4.6 mph - -   Despejado
10:00 PM 48.2 ° F - 39.2 ° F 71% 30.48 pul - ONO 8.1 mph - N/A   Despejado
10:30 PM 46.4 ° F 43.5 ° F 39.2 ° F 76% 30.48 pul - NO 5.8 mph - N/A   Despejado
11:00 PM 46.4 ° F 43.5 ° F 39.2 ° F 76% 30.48 pul - ONO 5.8 mph - N/A   Despejado
11:30 PM 46.4 ° F 42.9 ° F 37.4 ° F 71% 30.45 pul - ONO 6.9 mph - N/A   Despejado